Location: Meriden
(44.0740°N, 93.3870°W)
Time: 18:54:28
(UTC-05:00)

Amateur Radio Satellites - All Passes

Search period start: 28 September 2016 18:24
Search period end: 29 September 2016 18:24
Location: Meriden, 44.0740°N, 93.3870°W

Satellite Date Start Highest point End Downlink Frequencies (MHz)
Time Altitude Azimuth
Cosmos 2491 28 Sep 18:27:16 18:30:32 12° 309° (NW) 18:33:49 435.465 / 435.565
BRITE-PL 28 Sep 18:29:20 18:34:52 51° 261° (W) 18:40:18 437.365/2234.400
LilacSat-2 28 Sep 18:31:12 18:34:56 73° 76° (ENE) 18:38:43 437.200
DOVE 4 28 Sep 18:32:59 18:37:37 40° 70° (ENE) 18:42:00 437.250
RS-15 28 Sep 18:37:50 18:45:27 21° 97° (E) 18:53:14 29.354- 29.394
CUBESAT XI-V 28 Sep 18:48:17 18:52:58 65° 286° (WNW) 18:57:34 437.345
GONETS M04 28 Sep 18:51:53 18:59:05 27° 64° (ENE) 19:06:10
NOAA 18 28 Sep 18:57:15 19:02:43 79° 256° (WSW) 19:08:12 137.9125
DANDE 28 Sep 19:11:44 19:15:20 18° 77° (ENE) 19:19:30 436.750
CUSAT 1 28 Sep 19:12:12 19:18:18 50° 91° (E) 19:25:39 437.405
NOAA 15 28 Sep 19:31:23 19:35:52 27° 265° (W) 19:40:23 137.62
CINEMA 3 28 Sep 19:39:10 19:43:26 48° 72° (ENE) 19:47:34 145.822/145.860
CUTE 1.7 + AOD 2 28 Sep 19:41:35 19:45:27 36° 70° (ENE) 19:49:21 437.475
ISS 28 Sep 19:41:40 19:43:10 13° 132° (SE) 19:44:42 145.825
SEEDS 28 Sep 19:41:53 19:45:22 26° 67° (ENE) 19:48:53 437.485
CANX-2 28 Sep 19:42:51 19:46:51 42° 71° (ENE) 19:50:53 2200.000
CUTE-I 28 Sep 19:50:59 19:55:08 23° 267° (W) 19:59:18 437.470
Cubesat XI-IV 28 Sep 19:51:05 19:55:15 23° 267° (W) 19:59:26 437.490
GOMX 1 28 Sep 19:54:52 19:58:32 19° 269° (W) 20:02:08 467.674
HO-68 28 Sep 19:55:31 20:02:38 72° 70° (ENE) 20:09:47 435.675
Cosmos 2499 28 Sep 19:58:52 20:06:14 53° 76° (ENE) 20:14:08 435.465 / 435.565
AAUSAT CUBESAT 2 28 Sep 20:02:08 20:05:27 23° 67° (ENE) 20:08:47 437.432
STRAND 1 28 Sep 20:11:08 20:16:03 43° 98° (E) 20:20:55 437.568
DOVE 4 28 Sep 20:11:21 20:15:23 24° 266° (W) 20:19:16 437.250
AO-85 28 Sep 20:27:40 20:31:22 20° 111° (ESE) 20:34:56 145.980
CUBEBUG 2 28 Sep 20:40:48 20:44:54 58° 75° (ENE) 20:49:00 437.445
FUNcube-1 28 Sep 20:42:32 20:45:51 24° 67° (ENE) 20:49:11 145.935
NOAA 18 28 Sep 20:43:26 20:44:14 10° 273° (W) 20:45:00 137.9125
RS-15 28 Sep 20:44:10 20:55:46 79° 120° (ESE) 21:08:00 29.354- 29.394
COMPASS 1 28 Sep 20:46:18 20:50:28 88° 84° (E) 20:54:42 437.405
GONETS M04 28 Sep 20:48:00 20:56:48 74° 266° (W) 21:05:29
DANDE 28 Sep 20:51:33 20:56:53 75° 283° (WNW) 21:03:57 436.750
CUSAT 1 28 Sep 20:54:35 21:00:36 36° 294° (WNW) 21:07:35 437.405
UWE-3 28 Sep 20:56:59 21:01:03 58° 74° (ENE) 21:05:08 435.000/436.395/437.385
DELFI C3 28 Sep 21:14:29 21:17:37 22° 67° (ENE) 21:20:46 145.870
ISS 28 Sep 21:15:57 21:19:13 88° 323° (NW) 21:22:30 145.825
SEEDS 28 Sep 21:17:16 21:20:58 29° 265° (W) 21:24:42 437.485
CINEMA 3 28 Sep 21:17:58 21:20:49 17° 268° (W) 21:23:36 145.822/145.860
CUTE 1.7 + AOD 2 28 Sep 21:18:08 21:21:23 21° 267° (W) 21:24:40 437.475
CANX-2 28 Sep 21:19:59 21:22:54 18° 268° (W) 21:25:51 2200.000
Oscar 11 28 Sep 21:20:12 21:24:27 65° 75° (ENE) 21:28:46 145.826/435.025
ZACube-1 28 Sep 21:24:10 21:28:17 73° 76° (ENE) 21:32:26 437.345
PRISM 28 Sep 21:25:13 21:28:28 22° 94° (E) 21:31:40 437.425
AAUSAT CUBESAT 2 28 Sep 21:37:01 21:40:46 32° 264° (W) 21:44:33 437.432
HUMSAT D 28 Sep 21:37:22 21:40:25 21° 66° (ENE) 21:43:30 437.325/437.525
HO-68 28 Sep 21:45:32 21:50:58 23° 268° (W) 21:56:26 435.675
STRAND 1 28 Sep 21:50:46 21:55:00 26° 296° (WNW) 21:59:14 437.568
Cosmos 2499 28 Sep 21:52:32 21:59:01 32° 274° (W) 22:05:55 435.465 / 435.565
AO-85 28 Sep 22:06:21 22:11:29 63° 308° (NW) 22:16:17 145.980
FUNcube-1 28 Sep 22:18:21 22:21:59 30° 264° (W) 22:25:40 145.935
CUBEBUG 2 28 Sep 22:20:09 22:21:55 12° 270° (W) 22:23:42 437.445
ESTCUBE 1 28 Sep 22:33:44 22:36:33 17° 62° (ENE) 22:39:24 437.505/2401.250
UWE-3 28 Sep 22:36:08 22:37:55 12° 270° (W) 22:39:42 435.000/436.395/437.385
DANDE 28 Sep 22:38:13 22:41:23 14° 308° (NW) 22:44:56 436.750
ANTELSAT 28 Sep 22:43:48 22:47:21 23° 94° (E) 22:50:55 437.575/2403.000
GONETS M04 28 Sep 22:47:41 22:51:56 15° 287° (WNW) 22:56:11
DELFI C3 28 Sep 22:48:43 22:52:17 31° 263° (W) 22:55:55 145.870
M-CUBED/EXP-1 PRIME 28 Sep 22:49:00 22:49:46 10° 57° (ENE) 22:50:32 437.505
ISS 28 Sep 22:53:15 22:56:02 25° 348° (NNW) 22:58:51 145.825
RS-15 28 Sep 22:58:28 23:09:32 42° 327° (NNW) 23:21:04 29.354- 29.394
Oscar 11 28 Sep 22:59:18 23:01:02 12° 271° (W) 23:02:48 145.826/435.025
PRISM 28 Sep 23:00:06 23:03:50 33° 291° (WNW) 23:07:31 437.425
TIGRISAT 28 Sep 23:03:41 23:07:43 34° 97° (E) 23:11:48 435.000
HUMSAT D 28 Sep 23:12:03 23:15:49 35° 263° (W) 23:19:38 437.325/437.525
SO-50 28 Sep 23:15:54 23:19:56 29° 43° (NE) 23:23:52 436.795
AISAT 28 Sep 23:20:33 23:24:10 25° 66° (ENE) 23:27:48 437.250
UKube-1 28 Sep 23:23:25 23:25:28 13° 60° (ENE) 23:27:30 .
NANOSAT C BR1 28 Sep 23:41:10 23:42:21 11° 89° (E) 23:43:31 145.865
AUBIESAT-1 28 Sep 23:42:03 23:45:31 30° 65° (ENE) 23:48:49 437.475
UNISAT 6 28 Sep 23:44:25 23:48:50 83° 284° (WNW) 23:53:21 437.425
AO-85 28 Sep 23:50:12 23:52:48 14° 327° (NNW) 23:55:19 145.980
DX 1 28 Sep 23:51:57 23:55:50 31° 68° (ENE) 23:59:42 434.975-435.025
50 SAT 28 Sep 23:58:47 00:02:18 50° 73° (ENE) 00:05:52 437.505
VELOX 1 29 Sep 00:03:07 00:07:31 64° 73° (ENE) 00:11:56 145.980
QB50P2 29 Sep 00:03:47 00:07:09 23° 94° (E) 00:10:30 145.880/145.840
CUBEBUG 1 29 Sep 00:04:30 00:08:55 84° 73° (ENE) 00:13:21 437.445
POLYITAN 1 29 Sep 00:05:59 00:09:21 23° 94° (E) 00:12:43 437.675
ESTCUBE 1 29 Sep 00:08:26 00:12:54 58° 259° (W) 00:17:25 437.505/2401.250
M-CUBED/EXP-1 PRIME 29 Sep 00:19:44 00:23:51 80° 253° (WSW) 00:27:39 437.505
ANTELSAT 29 Sep 00:20:05 00:24:08 36° 290° (WNW) 00:28:15 437.575/2403.000
TISAT 1 29 Sep 00:23:47 00:25:37 13° 61° (ENE) 00:27:26 437.305
ISS 29 Sep 00:30:35 00:33:15 22° 8° (N) 00:35:56 145.825
Cosmos 2491 29 Sep 00:35:40 00:41:26 19° 58° (ENE) 00:47:11 435.465 / 435.565
JAS-2 29 Sep 00:38:25 00:46:00 48° 96° (E) 00:53:11 435.910
SPROUT 29 Sep 00:40:17 00:44:33 86° 76° (ENE) 00:48:50 437.525
BUGSAT 1 29 Sep 00:40:32 00:43:23 18° 93° (E) 00:46:13 437.445
TIGRISAT 29 Sep 00:40:41 00:44:15 25° 293° (WNW) 00:47:52 435.000
DUCHIFAT 1 29 Sep 00:41:51 00:45:55 47° 99° (E) 00:49:58 145.980
QB50P1 29 Sep 00:45:09 00:49:20 60° 101° (E) 00:53:30 145.935-145.965
BEESAT 2 29 Sep 00:50:10 00:52:29 15° 111° (ESE) 00:54:51 435.950
SO-50 29 Sep 00:56:14 01:00:31 40° 243° (WSW) 01:04:41 436.795
AISAT 29 Sep 00:56:26 01:00:29 34° 263° (W) 01:04:34 437.250
UKube-1 29 Sep 00:56:38 01:00:56 70° 257° (WSW) 01:05:17 .
POPSAT HIP 1 29 Sep 00:58:46 01:03:01 84° 106° (ESE) 01:07:13 437.405
NANOSAT C BR1 29 Sep 01:14:21 01:18:32 69° 286° (WNW) 01:22:42 145.865
ITUPSAT 1 29 Sep 01:15:21 01:16:32 11° 56° (ENE) 01:17:42 437.325
RS-15 29 Sep 01:16:30 01:26:31 28° 1° (N) 01:36:40 29.354- 29.394
AUBIESAT-1 29 Sep 01:16:48 01:19:59 22° 259° (WSW) 01:23:01 437.475
SWISSCUBE 29 Sep 01:25:59 01:28:46 16° 60° (ENE) 01:31:33 437.505
BEESAT 3 29 Sep 01:27:58 01:31:52 78° 123° (ESE) 01:35:49 437.485
DX 1 29 Sep 01:28:22 01:32:01 26° 265° (W) 01:35:41 434.975-435.025
50 SAT 29 Sep 01:34:56 01:36:07 11° 270° (W) 01:37:17 437.505
BEESAT 29 Sep 01:38:19 01:41:31 18° 62° (ENE) 01:44:45 436.000
QB50P2 29 Sep 01:39:13 01:43:01 33° 291° (WNW) 01:46:48 145.880/145.840
YUBILEINY 29 Sep 01:40:19 01:44:43 15° 74° (ENE) 01:49:07 435.215
POLYITAN 1 29 Sep 01:41:25 01:45:12 33° 291° (WNW) 01:49:00 437.675
Oscar 19 29 Sep 01:42:06 01:45:49 20° 92° (E) 01:49:31 437.125/150
VELOX 1 29 Sep 01:42:14 01:44:24 13° 270° (W) 01:46:33 145.980
TISAT 1 29 Sep 01:56:33 02:00:43 68° 258° (WSW) 02:04:53 437.305
ISS 29 Sep 02:06:58 02:10:13 57° 27° (NNE) 02:13:28 145.825
BUGSAT 1 29 Sep 02:15:11 02:18:54 37° 290° (WNW) 02:22:36 437.445
DUCHIFAT 1 29 Sep 02:18:33 02:21:15 17° 296° (WNW) 02:23:57 145.980
QB50P1 29 Sep 02:22:26 02:24:37 14° 298° (WNW) 02:26:50 145.935-145.965
JAS-2 29 Sep 02:23:35 02:30:50 42° 296° (WNW) 02:37:49 435.910
BEESAT 2 29 Sep 02:26:01 02:29:53 53° 309° (NW) 02:33:48 435.950
Cosmos 2491 29 Sep 02:30:58 02:39:54 80° 81° (E) 02:48:42 435.465 / 435.565
POPSAT HIP 1 29 Sep 02:37:18 02:38:08 10° 300° (WNW) 02:38:58 437.405
Gurwin Techsat 1B 29 Sep 02:48:30 02:53:28 39° 97° (E) 02:58:25 435.225
ITUPSAT 1 29 Sep 02:48:47 02:53:32 80° 75° (ENE) 02:58:21 437.325
MOZHAYETS 4 29 Sep 02:54:15 02:57:15 17° 62° (ENE) 03:00:15
SWISSCUBE 29 Sep 03:01:15 03:05:59 69° 257° (WSW) 03:10:46 437.505
BEESAT 3 29 Sep 03:07:41 03:10:01 15° 322° (NW) 03:12:23 437.485
KKS-1 29 Sep 03:10:58 03:13:46 17° 62° (ENE) 03:16:36 437.445
BEESAT 29 Sep 03:14:12 03:18:52 57° 259° (W) 03:23:35 436.000
Oscar 19 29 Sep 03:20:27 03:25:29 54° 289° (WNW) 03:30:28 437.125/150
AIST 2 29 Sep 03:21:50 03:25:03 22° 113° (ESE) 03:28:18 435.215
YUBILEINY 29 Sep 03:31:10 03:39:55 75° 94° (E) 03:48:39 435.215
RS-15 29 Sep 03:31:48 03:43:26 43° 34° (NE) 03:54:55 29.354- 29.394
Cosmos 2504 29 Sep 03:39:35 03:45:50 31° 86° (E) 03:51:57 435.465 / 435.565
STARS 29 Sep 03:41:13 03:44:00 17° 62° (ENE) 03:46:46 437.465
ISS 29 Sep 03:43:55 03:46:28 21° 224° (SW) 03:49:02 145.825
AO-7 29 Sep 03:57:37 04:04:38 29° 95° (E) 04:11:34 29.400- 29.500
PCSat 29 Sep 04:13:56 04:18:47 35° 111° (ESE) 04:23:39 145.827
ITAMSAT 1 29 Sep 04:16:04 04:21:18 69° 103° (ESE) 04:26:30 435.822/435.867
CUBESAT XI-V 29 Sep 04:17:15 04:20:21 18° 62° (ENE) 04:23:28 437.345
Gurwin Techsat 1B 29 Sep 04:28:43 04:33:16 30° 295° (WNW) 04:37:49 435.225
Cosmos 2491 29 Sep 04:29:16 04:35:40 23° 282° (WNW) 04:42:03 435.465 / 435.565
MOZHAYETS 4 29 Sep 04:29:30 04:33:58 55° 260° (W) 04:38:31
ITUPSAT 1 29 Sep 04:30:20 04:31:58 12° 272° (W) 04:33:37 437.325
AIST 1 29 Sep 04:36:27 04:38:48 14° 84° (E) 04:41:10
KKS-1 29 Sep 04:45:33 04:49:55 55° 259° (W) 04:54:18 437.445
AO-85 29 Sep 04:57:13 05:00:39 23° 41° (NE) 05:03:55 145.980
AIST 2 29 Sep 04:59:26 05:03:19 39° 311° (NW) 05:07:15 435.215
STARS 29 Sep 05:15:38 05:19:56 54° 259° (W) 05:24:15 437.465
YUBILEINY 29 Sep 05:30:36 05:37:38 26° 296° (WNW) 05:44:41 435.215
Cosmos 2504 29 Sep 05:31:51 05:38:55 49° 285° (WNW) 05:45:50 435.465 / 435.565
RS-15 29 Sep 05:44:46 05:57:08 77° 241° (WSW) 06:09:11 29.354- 29.394
CUSAT 1 29 Sep 05:45:09 05:52:30 43° 69° (ENE) 05:58:44 437.405
DANDE 29 Sep 05:45:45 05:52:22 25° 61° (ENE) 05:58:44 436.750
AO-7 29 Sep 05:49:44 05:57:56 67° 294° (WNW) 06:06:07 29.400- 29.500
CUBESAT XI-V 29 Sep 05:52:39 05:57:16 57° 260° (W) 06:01:56 437.345
STRAND 1 29 Sep 05:54:14 05:55:10 10° 55° (NE) 05:56:06 437.568
HORYU 2 29 Sep 05:55:17 05:59:20 33° 97° (E) 06:03:22 437.375
ITAMSAT 1 29 Sep 05:56:47 06:00:12 18° 300° (WNW) 06:03:38 435.822/435.867
PCSat 29 Sep 05:57:03 06:02:06 39° 310° (NW) 06:07:12 145.827
NOAA 15 29 Sep 06:06:20 06:08:48 13° 88° (E) 06:11:14 137.62
AIST 1 29 Sep 06:11:37 06:15:55 53° 281° (WNW) 06:20:13
GOMX 1 29 Sep 06:17:27 06:19:31 13° 88° (E) 06:21:32 467.674
CUTE-I 29 Sep 06:26:14 06:29:43 17° 91° (E) 06:33:09 437.470
Cubesat XI-IV 29 Sep 06:26:33 06:30:00 17° 90° (E) 06:33:26 437.490
BRITE-PL 29 Sep 06:33:24 06:38:05 49° 98° (E) 06:42:23 437.365/2234.400
AO-85 29 Sep 06:37:21 06:41:17 42° 242° (WSW) 06:44:58 145.980
O/OREOS (USA 219) 29 Sep 06:39:14 06:42:18 18° 100° (E) 06:45:24 437.305
NOAA 18 29 Sep 07:17:54 07:23:00 38° 98° (E) 07:28:05 137.9125
HO-68 29 Sep 07:25:39 07:27:10 11° 84° (E) 07:28:40 435.675
CUSAT 1 29 Sep 07:27:24 07:34:28 41° 272° (W) 07:40:25 437.405
DANDE 29 Sep 07:27:43 07:36:11 85° 262° (W) 07:44:00 436.750
STRAND 1 29 Sep 07:28:21 07:33:24 71° 73° (ENE) 07:38:31 437.568
HORYU 2 29 Sep 07:32:04 07:35:45 26° 294° (WNW) 07:39:26 437.375
LilacSat-2 29 Sep 07:37:04 07:40:56 89° 282° (WNW) 07:44:47 437.200
NOAA 15 29 Sep 07:43:53 07:49:13 83° 285° (WNW) 07:54:30 137.62
AO-7 29 Sep 07:44:17 07:49:13 18° 315° (NW) 07:54:08 29.400- 29.500
PCSat 29 Sep 07:46:18 07:47:06 10° 333° (NNW) 07:47:56 145.827
GOMX 1 29 Sep 07:53:46 07:58:06 57° 287° (WNW) 08:02:14 467.674
GONETS M04 29 Sep 07:55:48 08:02:53 28° 81° (E) 08:09:58
RS-15 29 Sep 07:59:35 08:07:27 20° 263° (W) 08:15:16 29.354- 29.394
CUTE-I 29 Sep 08:04:54 08:10:13 66° 288° (WNW) 08:15:32 437.470
Cubesat XI-IV 29 Sep 08:05:13 08:10:32 67° 288° (WNW) 08:15:51 437.490
DOVE 4 29 Sep 08:07:43 08:11:56 85° 100° (E) 08:16:05 437.250
BEESAT 3 29 Sep 08:07:44 08:09:17 12° 34° (NE) 08:10:53 437.485
BRITE-PL 29 Sep 08:12:46 08:16:08 19° 298° (WNW) 08:19:20 437.365/2234.400
PRISM 29 Sep 08:16:08 08:19:14 21° 65° (ENE) 08:22:22 437.425
O/OREOS (USA 219) 29 Sep 08:16:52 08:21:18 49° 298° (WNW) 08:25:47 437.305
COMPASS 1 29 Sep 08:29:19 08:31:17 13° 89° (E) 08:33:14 437.405
CUBEBUG 2 29 Sep 08:32:05 08:33:15 11° 89° (E) 08:34:25 437.445
Cosmos 2499 29 Sep 08:38:19 08:44:45 38° 88° (E) 08:51:09 435.465 / 435.565
UWE-3 29 Sep 08:47:18 08:48:14 11° 89° (E) 08:49:12 435.000/436.395/437.385
NOAA 18 29 Sep 08:58:46 09:03:33 32° 295° (WNW) 09:08:19 137.9125
SEEDS 29 Sep 08:59:02 09:03:04 39° 98° (E) 09:07:04 437.485
CUTE 1.7 + AOD 2 29 Sep 09:00:12 09:04:28 59° 100° (E) 09:08:42 437.475
CANX-2 29 Sep 09:01:44 09:06:03 71° 101° (E) 09:10:21 2200.000
BEESAT 2 29 Sep 09:05:23 09:08:20 19° 41° (NE) 09:11:15 435.950
Oscar 11 29 Sep 09:08:24 09:09:31 11° 88° (E) 09:10:39 145.826/435.025
CINEMA 3 29 Sep 09:08:49 09:13:00 82° 282° (WNW) 09:17:16 145.822/145.860
HO-68 29 Sep 09:09:04 09:16:13 66° 104° (ESE) 09:23:18 435.675
STRAND 1 29 Sep 09:10:16 09:13:07 15° 270° (W) 09:15:58 437.568
UNISAT 6 29 Sep 09:11:33 09:12:46 11° 60° (ENE) 09:14:00 437.425
DANDE 29 Sep 09:12:14 09:17:45 20° 281° (WNW) 09:23:04 436.750
ZACube-1 29 Sep 09:12:19 09:14:22 13° 90° (E) 09:16:25 437.345
AAUSAT CUBESAT 2 29 Sep 09:17:24 09:21:14 33° 96° (E) 09:25:02 437.432
NOAA 15 29 Sep 09:25:50 09:28:09 13° 304° (NW) 09:30:29 137.62
BEESAT 3 29 Sep 09:43:42 09:47:41 72° 54° (NE) 09:51:38 437.485
ANTELSAT 29 Sep 09:44:23 09:47:46 23° 66° (ENE) 09:51:10 437.575/2403.000
CUTE-I 29 Sep 09:48:19 09:49:16 10° 306° (NW) 09:50:12 437.470
Cubesat XI-IV 29 Sep 09:48:36 09:49:36 10° 306° (NW) 09:50:37 437.490
GONETS M04 29 Sep 09:50:09 09:58:56 68° 281° (WNW) 10:07:49
PRISM 29 Sep 09:50:25 09:54:18 38° 262° (W) 09:58:14 437.425
COMPASS 1 29 Sep 10:03:03 10:07:13 59° 286° (WNW) 10:11:21 437.405
FUNcube-1 29 Sep 10:03:52 10:07:59 42° 98° (E) 10:12:11 145.935
TIGRISAT 29 Sep 10:03:54 10:07:46 34° 69° (ENE) 10:11:37 435.000
CUBEBUG 2 29 Sep 10:06:02 10:10:19 73° 285° (WNW) 10:14:43 437.445
UWE-3 29 Sep 10:20:51 10:25:10 76° 285° (WNW) 10:29:36 435.000/436.395/437.385
DELFI C3 29 Sep 10:24:28 10:27:58 28° 95° (E) 10:31:26 145.870
Cosmos 2499 29 Sep 10:31:15 10:37:48 39° 288° (WNW) 10:44:22 435.465 / 435.565
NANOSAT C BR1 29 Sep 10:35:20 10:36:32 11° 60° (ENE) 10:37:45 145.865
SEEDS 29 Sep 10:35:21 10:38:31 20° 294° (WNW) 10:41:39 437.485
CUTE 1.7 + AOD 2 29 Sep 10:37:25 10:39:51 15° 297° (WNW) 10:42:15 437.475
CANX-2 29 Sep 10:39:27 10:41:20 13° 299° (WNW) 10:43:14 2200.000
Oscar 11 29 Sep 10:41:47 10:46:10 74° 284° (WNW) 10:50:30 145.826/435.025
BEESAT 2 29 Sep 10:42:31 10:46:28 56° 240° (WSW) 10:50:23 435.950
UNISAT 6 29 Sep 10:44:35 10:48:51 80° 258° (WSW) 10:53:08 437.425
ZACube-1 29 Sep 10:46:44 10:51:01 63° 286° (WNW) 10:55:24 437.345
JAS-2 29 Sep 10:52:38 10:58:02 26° 57° (ENE) 11:03:52 435.910
AAUSAT CUBESAT 2 29 Sep 10:53:13 10:56:32 23° 293° (WNW) 10:59:49 437.432
HUMSAT D 29 Sep 10:53:33 10:57:22 31° 96° (E) 11:01:10 437.325/437.525
HO-68 29 Sep 10:57:35 11:03:24 28° 302° (WNW) 11:09:11 435.675
QB50P2 29 Sep 10:58:02 11:01:14 21° 65° (ENE) 11:04:26 145.880/145.840
POLYITAN 1 29 Sep 11:00:14 11:03:26 21° 66° (ENE) 11:06:37 437.675
PHONESAT 2.4 29 Sep 11:07:55 11:10:17 22° 161° (SSE) 11:12:39 2401.200-2431.200
PCSat 29 Sep 11:18:51 11:19:57 11° 28° (NNE) 11:21:04 145.827
ANTELSAT 29 Sep 11:20:29 11:24:20 33° 263° (W) 11:28:12 437.575/2403.000
BEESAT 3 29 Sep 11:23:29 11:24:46 11° 251° (WSW) 11:26:02 437.485
BUGSAT 1 29 Sep 11:32:05 11:34:44 17° 64° (ENE) 11:37:22 437.445
DUCHIFAT 1 29 Sep 11:34:56 11:38:52 42° 71° (ENE) 11:42:49 145.980
QB50P1 29 Sep 11:38:43 11:42:48 53° 73° (ENE) 11:46:54 145.935-145.965
FUNcube-1 29 Sep 11:40:48 11:43:58 20° 295° (WNW) 11:47:11 145.935
AIST 2 29 Sep 11:40:59 11:44:36 27° 45° (NE) 11:48:13 435.215
TIGRISAT 29 Sep 11:41:16 11:44:33 22° 266° (W) 11:47:51 435.000
POPSAT HIP 1 29 Sep 11:52:18 11:56:29 74° 75° (ENE) 12:00:41 437.405
GONETS M04 29 Sep 11:52:56 11:57:43 15° 305° (NW) 12:02:33
CUBEBUG 1 29 Sep 11:53:14 11:55:26 14° 90° (E) 11:57:36 437.445
VELOX 1 29 Sep 11:54:39 11:55:22 10° 88° (E) 11:56:06 145.980
DELFI C3 29 Sep 11:59:25 12:02:42 24° 292° (WNW) 12:05:58 145.870
ESTCUBE 1 29 Sep 11:59:47 12:03:36 26° 95° (E) 12:07:23 437.505/2401.250
NANOSAT C BR1 29 Sep 12:07:28 12:11:39 79° 257° (WSW) 12:15:51 145.865
SPROUT 29 Sep 12:26:20 12:28:21 13° 90° (E) 12:30:21 437.525
HUMSAT D 29 Sep 12:29:21 12:32:51 25° 293° (WNW) 12:36:23 437.325/437.525
QB50P2 29 Sep 12:32:56 12:36:49 36° 262° (W) 12:40:44 145.880/145.840
POLYITAN 1 29 Sep 12:35:09 12:39:01 36° 263° (W) 12:42:54 437.675
Gurwin Techsat 1B 29 Sep 12:35:42 12:37:11 11° 55° (NE) 12:38:41 435.225
JAS-2 29 Sep 12:35:44 12:42:16 71° 258° (WSW) 12:49:43 435.910
UKube-1 29 Sep 12:43:14 12:46:04 17° 92° (E) 12:48:54 .
PHONESAT 2.4 29 Sep 12:43:14 12:46:02 40° 177° (S) 12:48:50 2401.200-2431.200
AISAT 29 Sep 12:44:41 12:48:48 38° 98° (E) 12:52:52 437.250
AUBIESAT-1 29 Sep 12:54:08 12:55:47 13° 98° (E) 12:57:25 437.475
50 SAT 29 Sep 12:58:14 13:01:49 49° 100° (E) 13:05:22 437.505
PCSat 29 Sep 12:59:48 13:04:55 40° 50° (NE) 13:10:01 145.827
Oscar 19 29 Sep 12:59:59 13:04:38 34° 67° (ENE) 13:09:17 437.125/150
BUGSAT 1 29 Sep 13:05:51 13:09:47 44° 261° (W) 13:13:42 437.445
DUCHIFAT 1 29 Sep 13:11:55 13:14:45 18° 268° (W) 13:17:35 145.980
AO-7 29 Sep 13:12:04 13:15:02 12° 39° (NE) 13:18:00 29.400- 29.500
DX 1 29 Sep 13:14:09 13:18:21 46° 100° (E) 13:22:30 434.975-435.025
QB50P1 29 Sep 13:16:39 13:18:55 14° 269° (W) 13:21:10 145.935-145.965
AIST 2 29 Sep 13:19:17 13:23:09 37° 243° (WSW) 13:27:01 435.215
CUBEBUG 1 29 Sep 13:27:49 13:32:06 58° 287° (WNW) 13:36:20 437.445
VELOX 1 29 Sep 13:27:58 13:32:23 78° 285° (WNW) 13:36:46 145.980
Cosmos 2504 29 Sep 13:30:34 13:33:16 12° 57° (ENE) 13:36:00 435.465 / 435.565
M-CUBED/EXP-1 PRIME 29 Sep 13:31:47 13:34:59 50° 106° (ESE) 13:38:10 437.505
POPSAT HIP 1 29 Sep 13:32:36 13:32:46 10° 272° (W) 13:32:57 437.405
ESTCUBE 1 29 Sep 13:36:21 13:40:25 33° 292° (WNW) 13:44:28 437.505/2401.250
YUBILEINY 29 Sep 13:39:46 13:47:51 40° 71° (ENE) 13:55:51 435.215
TISAT 1 29 Sep 13:39:58 13:42:36 16° 92° (E) 13:45:12 437.305
Cosmos 2491 29 Sep 13:41:08 13:46:38 19° 76° (ENE) 13:52:07 435.465 / 435.565
ITAMSAT 1 29 Sep 13:58:27 14:01:49 18° 59° (ENE) 14:05:11 435.822/435.867
SPROUT 29 Sep 14:00:29 14:04:41 59° 286° (WNW) 14:08:51 437.525
Gurwin Techsat 1B 29 Sep 14:10:55 14:16:11 72° 73° (ENE) 14:21:30 435.225
UKube-1 29 Sep 14:18:13 14:22:21 46° 289° (WNW) 14:26:28 .
PHONESAT 2.4 29 Sep 14:19:14 14:21:50 28° 194° (SSW) 14:24:24 2401.200-2431.200
AISAT 29 Sep 14:21:39 14:25:02 22° 295° (WNW) 14:28:24 437.250
JAS-2 29 Sep 14:26:16 14:28:49 12° 279° (W) 14:31:27 435.910
AUBIESAT-1 29 Sep 14:27:23 14:30:26 35° 294° (WNW) 14:33:29 437.475
50 SAT 29 Sep 14:33:12 14:34:53 13° 297° (WNW) 14:36:34 437.505
Oscar 19 29 Sep 14:39:18 14:43:56 32° 264° (W) 14:48:36 437.125/150
PCSat 29 Sep 14:43:25 14:48:14 33° 249° (WSW) 14:53:01 145.827
ITUPSAT 1 29 Sep 14:48:43 14:52:04 18° 92° (E) 14:55:23 437.325
DX 1 29 Sep 14:51:12 14:54:11 18° 297° (WNW) 14:57:11 434.975-435.025
AO-7 29 Sep 14:57:58 15:05:46 47° 61° (ENE) 15:13:35 29.400- 29.500
SWISSCUBE 29 Sep 15:00:16 15:04:21 27° 95° (E) 15:08:24 437.505
M-CUBED/EXP-1 PRIME 29 Sep 15:08:27 15:09:08 10° 303° (WNW) 15:09:49 437.505
SO-50 29 Sep 15:11:02 15:15:38 45° 118° (ESE) 15:20:12 436.795
BEESAT 29 Sep 15:12:53 15:17:11 32° 96° (E) 15:21:27 436.000
TISAT 1 29 Sep 15:14:29 15:18:29 45° 289° (WNW) 15:22:27 437.305
Cosmos 2504 29 Sep 15:20:50 15:28:14 64° 79° (ENE) 15:36:06 435.465 / 435.565
Cosmos 2491 29 Sep 15:33:18 15:42:05 87° 97° (E) 15:51:00 435.465 / 435.565
ITAMSAT 1 29 Sep 15:35:36 15:40:44 69° 257° (WSW) 15:45:56 435.822/435.867
YUBILEINY 29 Sep 15:36:34 15:44:47 48° 272° (W) 15:52:57 435.215
Gurwin Techsat 1B 29 Sep 15:53:33 15:56:40 16° 270° (W) 15:59:48 435.225
BRITE-PL 29 Sep 16:10:14 16:12:08 12° 57° (ENE) 16:14:01 437.365/2234.400
AIST 1 29 Sep 16:17:05 16:21:10 41° 77° (ENE) 16:25:12
MOZHAYETS 4 29 Sep 16:23:05 16:27:12 30° 96° (E) 16:31:18
ITUPSAT 1 29 Sep 16:25:31 16:30:12 52° 289° (WNW) 16:34:52 437.325
KKS-1 29 Sep 16:35:20 16:38:58 24° 95° (E) 16:42:33 437.445
SWISSCUBE 29 Sep 16:37:48 16:42:11 36° 292° (WNW) 16:46:33 437.505
O/OREOS (USA 219) 29 Sep 16:46:07 16:50:33 45° 61° (ENE) 16:54:57 437.305
BEESAT 29 Sep 16:50:44 16:54:54 30° 294° (WNW) 16:59:04 436.000
AO-7 29 Sep 16:50:47 16:58:35 43° 260° (W) 17:06:25 29.400- 29.500
SO-50 29 Sep 16:52:04 16:56:16 29° 316° (NW) 17:00:26 436.795
HORYU 2 29 Sep 16:54:35 16:58:38 37° 69° (ENE) 17:02:42 437.375
STARS 29 Sep 17:03:53 17:07:24 23° 95° (E) 17:10:55 437.465
NOAA 18 29 Sep 17:08:41 17:11:17 14° 55° (NE) 17:13:53 137.9125
Cosmos 2504 29 Sep 17:15:10 17:21:03 26° 277° (W) 17:27:13 435.465 / 435.565
GOMX 1 29 Sep 17:25:33 17:29:36 23° 65° (ENE) 17:33:31 467.674
NOAA 15 29 Sep 17:26:56 17:31:17 26° 63° (ENE) 17:35:39 137.62
Cosmos 2491 29 Sep 17:33:39 17:40:10 22° 299° (WNW) 17:46:45 435.465 / 435.565
DOVE 4 29 Sep 17:39:28 17:41:36 13° 61° (ENE) 17:43:43 437.250
BRITE-PL 29 Sep 17:44:01 17:49:41 70° 74° (ENE) 17:55:11 437.365/2234.400
CUBESAT XI-V 29 Sep 17:47:53 17:52:05 31° 95° (E) 17:56:14 437.345
CUTE-I 29 Sep 17:49:05 17:53:46 33° 66° (ENE) 17:58:28 437.470
Cubesat XI-IV 29 Sep 17:49:34 17:54:15 33° 66° (ENE) 17:58:58 437.490
AIST 1 29 Sep 17:55:36 17:58:25 17° 274° (W) 18:01:13
HO-68 29 Sep 17:56:48 17:59:34 13° 46° (NE) 18:02:20 435.675
MOZHAYETS 4 29 Sep 18:00:17 18:04:19 30° 292° (WNW) 18:08:20
GONETS M04 29 Sep 18:03:58 18:08:38 15° 54° (NE) 18:13:16
RS-15 29 Sep 18:05:04 18:10:10 14° 93° (E) 18:15:20 29.354- 29.394
KKS-1 29 Sep 18:11:35 18:15:35 34° 292° (WNW) 18:19:33 437.445
